{"data":{"norad_id":67874,"epoch":"2026-09-19T19:43:26.709024Z","epoch_age_seconds":121911,"freshness":"FRESH","line1":"1 67874U 26034AA  26262.82183691  .00020118  00000+0  60457-3 0  9999","line2":"2 67874  53.1584  17.1606 0001224  81.8271 278.2870 15.34419511 33832","mean_motion":15.34419511,"eccentricity":0.0001224,"inclination_deg":53.1584,"raan_deg":17.1606,"arg_perigee_deg":81.8271,"mean_anomaly_deg":278.287,"bstar":0.00060457,"rev_number":3383,"period_min":93.846564754741,"perigee_km":461.80793827044,"apogee_km":463.48256176524,"semimajor_km":6840.7822500178,"source":"CELESTRAK","updated_at":"2026-09-20T09:00:43.693708Z"}}